#Datum;Uhrzeit;WR;Pac;DaySum;Status;WR;Pac;DaySum;Status;Pdc1;Udc;Temp;WR;Pac;DaySum;Status;Pdc1;Udc;Temp;WR;Pac;DaySum;Status;Pdc1;Udc;Temp;WR;Pac;DaySum;Status;Pdc1;Pdc2;Udc1;Udc2;Temp;WR;Pac;DaySum;Status;Pdc1;Pdc2;Udc1;Udc2;Temp;WR;Pac;DaySum;Status;Pdc1;Udc;Temp;WR;Pac;DaySum;Status;Pdc1;Udc;Temp;WR;Pac;DaySum;Status;Pdc1;Udc;Temp
19.01.18;23:55:00;1;184;11317;0;2;0;5058;0;0;0;0;3;0;3094;0;0;0;0;4;0;3887;0;0;0;0;5;0;10446;0;0;0;0;0;0;6;0;7623;0;0;0;0;0;0;7;0;6879;0;0;0;0;8;0;6316;0;0;0;0;9;0;3234;0;0;0;0
19.01.18;23:50:00;1;196;11301;0;2;0;5058;0;0;0;0;3;0;3094;0;0;0;0;4;0;3887;0;0;0;0;5;0;10446;0;0;0;0;0;0;6;0;7623;0;0;0;0;0;0;7;0;6879;0;0;0;0;8;0;6316;0;0;0;0;9;0;3234;0;0;0;0
19.01.18;23:45:00;1;825;11285;0;2;0;5058;0;0;0;0;3;0;3094;0;0;0;0;4;0;3887;0;0;0;0;5;0;10446;0;0;0;0;0;0;6;0;7623;0;0;0;0;0;0;7;0;6879;0;0;0;0;8;0;6316;0;0;0;0;9;0;3234;0;0;0;0
19.01.18;23:40:00;1;217;11235;0;2;0;5058;0;0;0;0;3;0;3094;0;0;0;0;4;0;3887;0;0;0;0;5;0;10446;0;0;0;0;0;0;6;0;7623;0;0;0;0;0;0;7;0;6879;0;0;0;0;8;0;6316;0;0;0;0;9;0;3234;0;0;0;0
19.01.18;23:35:00;1;224;11217;0;2;0;5058;0;0;0;0;3;0;3094;0;0;0;0;4;0;3887;0;0;0;0;5;0;10446;0;0;0;0;0;0;6;0;7623;0;0;0;0;0;0;7;0;6879;0;0;0;0;8;0;6316;0;0;0;0;9;0;3234;0;0;0;0
19.01.18;23:30:00;1;262;11198;0;2;0;5058;0;0;0;0;3;0;3094;0;0;0;0;4;0;3887;0;0;0;0;5;0;10446;0;0;0;0;0;0;6;0;7623;0;0;0;0;0;0;7;0;6879;0;0;0;0;8;0;6316;0;0;0;0;9;0;3234;0;0;0;0
19.01.18;23:25:00;1;668;11176;0;2;0;5058;0;0;0;0;3;0;3094;0;0;0;0;4;0;3887;0;0;0;0;5;0;10446;0;0;0;0;0;0;6;0;7623;0;0;0;0;0;0;7;0;6879;0;0;0;0;8;0;6316;0;0;0;0;9;0;3234;0;0;0;0
19.01.18;23:20:00;1;247;11121;0;2;0;5058;0;0;0;0;3;0;3094;0;0;0;0;4;0;3887;0;0;0;0;5;0;10446;0;0;0;0;0;0;6;0;7623;0;0;0;0;0;0;7;0;6879;0;0;0;0;8;0;6316;0;0;0;0;9;0;3234;0;0;0;0
19.01.18;23:15:00;1;221;11100;0;2;0;5058;0;0;0;0;3;0;3094;0;0;0;0;4;0;3887;0;0;0;0;5;0;10446;0;0;0;0;0;0;6;0;7623;0;0;0;0;0;0;7;0;6879;0;0;0;0;8;0;6316;0;0;0;0;9;0;3234;0;0;0;0
19.01.18;23:10:00;1;221;11081;0;2;0;5058;0;0;0;0;3;0;3094;0;0;0;0;4;0;3887;0;0;0;0;5;0;10446;0;0;0;0;0;0;6;0;7623;0;0;0;0;0;0;7;0;6879;0;0;0;0;8;0;6316;0;0;0;0;9;0;3234;0;0;0;0
19.01.18;23:05:00;1;623;11063;0;2;0;5058;0;0;0;0;3;0;3094;0;0;0;0;4;0;3887;0;0;0;0;5;0;10446;0;0;0;0;0;0;6;0;7623;0;0;0;0;0;0;7;0;6879;0;0;0;0;8;0;6316;0;0;0;0;9;0;3234;0;0;0;0
19.01.18;23:00:00;1;222;11012;0;2;0;5058;0;0;0;0;3;0;3094;0;0;0;0;4;0;3887;0;0;0;0;5;0;10446;0;0;0;0;0;0;6;0;7623;0;0;0;0;0;0;7;0;6879;0;0;0;0;8;0;6316;0;0;0;0;9;0;3234;0;0;0;0
19.01.18;22:55:00;1;222;10994;0;2;0;5058;0;0;0;0;3;0;3094;0;0;0;0;4;0;3887;0;0;0;0;5;0;10446;2;0;0;0;0;0;6;0;7623;2;0;0;0;0;0;7;0;6879;0;0;0;0;8;0;6316;0;0;0;0;9;0;3234;0;0;0;0
19.01.18;22:50:00;1;222;10975;0;2;0;5058;0;0;0;0;3;0;3094;0;0;0;0;4;0;3887;0;0;0;0;5;0;10446;2;0;0;0;0;0;6;0;7623;2;0;0;0;0;0;7;0;6879;0;0;0;0;8;0;6316;0;0;0;0;9;0;3234;0;0;0;0
19.01.18;22:45:00;1;640;10957;0;2;0;5058;0;0;0;0;3;0;3094;0;0;0;0;4;0;3887;0;0;0;0;5;0;10446;2;0;0;0;0;0;6;0;7623;2;0;0;0;0;0;7;0;6879;0;0;0;0;8;0;6316;0;0;0;0;9;0;3234;0;0;0;0
19.01.18;22:40:00;1;340;10905;0;2;0;5058;0;0;0;0;3;0;3094;0;0;0;0;4;0;3887;0;0;0;0;5;0;10446;2;0;0;0;0;0;6;0;7623;2;0;0;0;0;0;7;0;6879;0;0;0;0;8;0;6316;0;0;0;0;9;0;3234;0;0;0;0
19.01.18;22:35:00;1;327;10877;0;2;0;5058;0;0;0;0;3;0;3094;0;0;0;0;4;0;3887;0;0;0;0;5;0;10446;2;0;0;0;0;0;6;0;7623;2;0;0;0;0;0;7;0;6879;0;0;0;0;8;0;6316;0;0;0;0;9;0;3234;0;0;0;0
19.01.18;22:30:00;1;335;10849;0;2;0;5058;0;0;0;0;3;0;3094;0;0;0;0;4;0;3887;0;0;0;0;5;0;10446;2;0;0;0;0;0;6;0;7623;2;0;0;0;0;0;7;0;6879;0;0;0;0;8;0;6316;0;0;0;0;9;0;3234;0;0;0;0
19.01.18;22:25:00;1;462;10821;0;2;0;5058;0;0;0;0;3;0;3094;0;0;0;0;4;0;3887;0;0;0;0;5;0;10446;2;0;0;0;0;0;6;0;7623;2;0;0;0;0;0;7;0;6879;0;0;0;0;8;0;6316;0;0;0;0;9;0;3234;0;0;0;0
19.01.18;22:20:00;1;663;10771;0;2;0;5058;0;0;0;0;3;0;3094;0;0;0;0;4;0;3887;0;0;0;0;5;0;10446;2;0;0;0;0;0;6;0;7623;2;0;0;0;0;0;7;0;6879;0;0;0;0;8;0;6316;0;0;0;0;9;0;3234;0;0;0;0
19.01.18;22:15:00;1;298;10737;0;2;0;5058;0;0;0;0;3;0;3094;0;0;0;0;4;0;3887;0;0;0;0;5;0;10446;2;0;0;0;0;0;6;0;7623;2;0;0;0;0;0;7;0;6879;0;0;0;0;8;0;6316;0;0;0;0;9;0;3234;0;0;0;0
19.01.18;22:10:00;1;228;10713;0;2;0;5058;0;0;0;0;3;0;3094;0;0;0;0;4;0;3887;0;0;0;0;5;0;10446;2;0;0;0;0;0;6;0;7623;2;0;0;0;0;0;7;0;6879;0;0;0;0;8;0;6316;0;0;0;0;9;0;3234;0;0;0;0
19.01.18;22:05:00;1;241;10694;0;2;0;5058;0;0;0;0;3;0;3094;0;0;0;0;4;0;3887;0;0;0;0;5;0;10446;2;0;0;0;0;0;6;0;7623;2;0;0;0;0;0;7;0;6879;0;0;0;0;8;0;6316;0;0;0;0;9;0;3234;0;0;0;0
19.01.18;22:00:00;1;558;10666;0;2;0;5058;0;0;0;0;3;0;3094;0;0;0;0;4;0;3887;0;0;0;0;5;0;10446;2;0;0;0;0;0;6;0;7623;2;0;0;0;0;0;7;0;6879;0;0;0;0;8;0;6316;0;0;0;0;9;0;3234;0;0;0;0
19.01.18;21:55:00;1;333;10613;0;2;0;5058;0;0;0;0;3;0;3094;0;0;0;0;4;0;3887;0;0;0;0;5;0;10446;2;0;0;0;0;0;6;0;7623;2;0;0;0;0;0;7;0;6879;0;0;0;0;8;0;6316;0;0;0;0;9;0;3234;0;0;0;0
19.01.18;21:50:00;1;484;10584;0;2;0;5058;0;0;0;0;3;0;3094;0;0;0;0;4;0;3887;0;0;0;0;5;0;10446;2;0;0;0;0;0;6;0;7623;2;0;0;0;0;0;7;0;6879;0;0;0;0;8;0;6316;0;0;0;0;9;0;3234;0;0;0;0
19.01.18;21:45:00;1;452;10544;0;2;0;5058;0;0;0;0;3;0;3094;0;0;0;0;4;0;3887;0;0;0;0;5;0;10446;2;0;0;0;0;0;6;0;7623;2;0;0;0;0;0;7;0;6879;0;0;0;0;8;0;6316;0;0;0;0;9;0;3234;0;0;0;0
19.01.18;21:40:00;1;862;10506;0;2;0;5058;0;0;0;0;3;0;3094;0;0;0;0;4;0;3887;0;0;0;0;5;0;10446;2;0;0;0;0;0;6;0;7623;2;0;0;0;0;0;7;0;6879;0;0;0;0;8;0;6316;0;0;0;0;9;0;3234;0;0;0;0
19.01.18;21:35:00;1;493;10439;0;2;0;5058;0;0;0;0;3;0;3094;0;0;0;0;4;0;3887;0;0;0;0;5;0;10446;2;0;0;0;0;0;6;0;7623;2;0;0;0;0;0;7;0;6879;0;0;0;0;8;0;6316;0;0;0;0;9;0;3234;0;0;0;0
19.01.18;21:30:00;1;514;10398;0;2;0;5058;0;0;0;0;3;0;3094;0;0;0;0;4;0;3887;0;0;0;0;5;0;10446;2;0;0;0;0;0;6;0;7623;2;0;0;0;0;0;7;0;6879;0;0;0;0;8;0;6316;0;0;0;0;9;0;3234;0;0;0;0
19.01.18;21:25:00;1;520;10355;0;2;0;5058;0;0;0;0;3;0;3094;0;0;0;0;4;0;3887;0;0;0;0;5;0;10446;2;0;0;0;0;0;6;0;7623;2;0;0;0;0;0;7;0;6879;0;0;0;0;8;0;6316;0;0;0;0;9;0;3234;0;0;0;0
19.01.18;21:20:00;1;913;10312;0;2;0;5058;0;0;0;0;3;0;3094;0;0;0;0;4;0;3887;0;0;0;0;5;0;10446;2;0;0;0;0;0;6;0;7623;2;0;0;0;0;0;7;0;6879;0;0;0;0;8;0;6316;0;0;0;0;9;0;3234;0;0;0;0
19.01.18;21:15:00;1;500;10239;0;2;0;5058;0;0;0;0;3;0;3094;0;0;0;0;4;0;3887;0;0;0;0;5;0;10446;2;0;0;0;0;0;6;0;7623;2;0;0;0;0;0;7;0;6879;0;0;0;0;8;0;6316;0;0;0;0;9;0;3234;0;0;0;0
19.01.18;21:10:00;1;512;10197;0;2;0;5058;0;0;0;0;3;0;3094;0;0;0;0;4;0;3887;0;0;0;0;5;0;10446;2;0;0;0;0;0;6;0;7623;2;0;0;0;0;0;7;0;6879;0;0;0;0;8;0;6316;0;0;0;0;9;0;3234;0;0;0;0
19.01.18;21:05:00;1;526;10154;0;2;0;5058;0;0;0;0;3;0;3094;0;0;0;0;4;0;3887;0;0;0;0;5;0;10446;2;0;0;0;0;0;6;0;7623;2;0;0;0;0;0;7;0;6879;0;0;0;0;8;0;6316;0;0;0;0;9;0;3234;0;0;0;0
19.01.18;21:00:00;1;706;10110;0;2;0;5058;0;0;0;0;3;0;3094;0;0;0;0;4;0;3887;0;0;0;0;5;0;10446;2;0;0;0;0;0;6;0;7623;2;0;0;0;0;0;7;0;6879;0;0;0;0;8;0;6316;0;0;0;0;9;0;3234;0;0;0;0
19.01.18;20:55:00;1;532;10037;0;2;0;5058;0;0;0;0;3;0;3094;0;0;0;0;4;0;3887;0;0;0;0;5;0;10446;2;0;0;0;0;0;6;0;7623;2;0;0;0;0;0;7;0;6879;0;0;0;0;8;0;6316;0;0;0;0;9;0;3234;0;0;0;0
19.01.18;20:50:00;1;584;9992;0;2;0;5058;0;0;0;0;3;0;3094;0;0;0;0;4;0;3887;0;0;0;0;5;0;10446;2;0;0;0;0;0;6;0;7623;2;0;0;0;0;0;7;0;6879;0;0;0;0;8;0;6316;0;0;0;0;9;0;3234;0;0;0;0
19.01.18;20:45:00;1;637;9943;0;2;0;5058;0;0;0;0;3;0;3094;0;0;0;0;4;0;3887;0;0;0;0;5;0;10446;2;0;0;0;0;0;6;0;7623;2;0;0;0;0;0;7;0;6879;0;0;0;0;8;0;6316;0;0;0;0;9;0;3234;0;0;0;0
19.01.18;20:40:00;1;681;9889;0;2;0;5058;0;0;0;0;3;0;3094;0;0;0;0;4;0;3887;0;0;0;0;5;0;10446;2;0;0;0;0;0;6;0;7623;2;0;0;0;0;0;7;0;6879;0;0;0;0;8;0;6316;0;0;0;0;9;0;3234;0;0;0;0
19.01.18;20:35:00;1;1094;9832;0;2;0;5058;0;0;0;0;3;0;3094;0;0;0;0;4;0;3887;0;0;0;0;5;0;10446;2;0;0;0;0;0;6;0;7623;2;0;0;0;0;0;7;0;6879;0;0;0;0;8;0;6316;0;0;0;0;9;0;3234;0;0;0;0
19.01.18;20:30:00;1;639;9747;0;2;0;5058;0;0;0;0;3;0;3094;0;0;0;0;4;0;3887;0;0;0;0;5;0;10446;2;0;0;0;0;0;6;0;7623;2;0;0;0;0;0;7;0;6879;0;0;0;0;8;0;6316;0;0;0;0;9;0;3234;0;0;0;0
19.01.18;20:25:00;1;579;9694;0;2;0;5058;0;0;0;0;3;0;3094;0;0;0;0;4;0;3887;0;0;0;0;5;0;10446;2;0;0;0;0;0;6;0;7623;2;0;0;0;0;0;7;0;6879;0;0;0;0;8;0;6316;0;0;0;0;9;0;3234;0;0;0;0
19.01.18;20:20:00;1;553;9646;0;2;0;5058;0;0;0;0;3;0;3094;0;0;0;0;4;0;3887;0;0;0;0;5;0;10446;2;0;0;0;0;0;6;0;7623;2;0;0;0;0;0;7;0;6879;0;0;0;0;8;0;6316;0;0;0;0;9;0;3234;0;0;0;0
19.01.18;20:15:00;1;1165;9587;0;2;0;5058;0;0;0;0;3;0;3094;0;0;0;0;4;0;3887;0;0;0;0;5;0;10446;2;0;0;0;0;0;6;0;7623;2;0;0;0;0;0;7;0;6879;0;0;0;0;8;0;6316;0;0;0;0;9;0;3234;0;0;0;0
19.01.18;20:10:00;1;1224;9465;0;2;0;5058;0;0;0;0;3;0;3094;0;0;0;0;4;0;3887;0;0;0;0;5;0;10446;2;0;0;0;0;0;6;0;7623;2;0;0;0;0;0;7;0;6879;0;0;0;0;8;0;6316;0;0;0;0;9;0;3234;0;0;0;0
19.01.18;20:05:00;1;2272;9369;0;2;0;5058;0;0;0;0;3;0;3094;0;0;0;0;4;0;3887;0;0;0;0;5;0;10446;2;0;0;0;0;0;6;0;7623;2;0;0;0;0;0;7;0;6879;0;0;0;0;8;0;6316;0;0;0;0;9;0;3234;0;0;0;0
19.01.18;20:00:00;1;1719;9209;0;2;0;5058;0;0;0;0;3;0;3094;0;0;0;0;4;0;3887;0;0;0;0;5;0;10446;2;0;0;0;0;0;6;0;7623;2;0;0;0;0;0;7;0;6879;0;0;0;0;8;0;6316;0;0;0;0;9;0;3234;0;0;0;0
19.01.18;19:55:00;1;493;9090;0;2;0;5058;0;0;0;0;3;0;3094;0;0;0;0;4;0;3887;0;0;0;0;5;0;10446;2;0;0;0;0;0;6;0;7623;2;0;0;0;0;0;7;0;6879;0;0;0;0;8;0;6316;0;0;0;0;9;0;3234;0;0;0;0
19.01.18;19:50:00;1;1041;9047;0;2;0;5058;0;0;0;0;3;0;3094;0;0;0;0;4;0;3887;0;0;0;0;5;0;10446;2;0;0;0;0;0;6;0;7623;2;0;0;0;0;0;7;0;6879;0;0;0;0;8;0;6316;0;0;0;0;9;0;3234;0;0;0;0
19.01.18;19:45:00;1;563;8977;0;2;0;5058;0;0;0;0;3;0;3094;0;0;0;0;4;0;3887;0;0;0;0;5;0;10446;2;0;0;0;0;0;6;0;7623;2;0;0;0;0;0;7;0;6879;0;0;0;0;8;0;6316;0;0;0;0;9;0;3234;0;0;0;0
19.01.18;19:40:00;1;540;8932;0;2;0;5058;0;0;0;0;3;0;3094;0;0;0;0;4;0;3887;0;0;0;0;5;0;10446;2;0;0;0;0;0;6;0;7623;2;0;0;0;0;0;7;0;6879;0;0;0;0;8;0;6316;0;0;0;0;9;0;3234;0;0;0;0
19.01.18;19:35:00;1;550;8886;0;2;0;5058;0;0;0;0;3;0;3094;0;0;0;0;4;0;3887;0;0;0;0;5;0;10446;2;0;0;0;0;0;6;0;7623;2;0;0;0;0;0;7;0;6879;0;0;0;0;8;0;6316;0;0;0;0;9;0;3234;0;0;0;0
19.01.18;19:30:00;1;887;8840;0;2;0;5058;0;0;0;0;3;0;3094;0;0;0;0;4;0;3887;0;0;0;0;5;0;10446;2;0;0;0;0;0;6;0;7623;2;0;0;0;0;0;7;0;6879;0;0;0;0;8;0;6316;0;0;0;0;9;0;3234;0;0;0;0
19.01.18;19:25:00;1;548;8767;0;2;0;5058;0;0;0;0;3;0;3094;0;0;0;0;4;0;3887;0;0;0;0;5;0;10446;2;0;0;0;0;0;6;0;7623;2;0;0;0;0;0;7;0;6879;0;0;0;0;8;0;6316;0;0;0;0;9;0;3234;0;0;0;0
19.01.18;19:20:00;1;573;8721;0;2;0;5058;0;0;0;0;3;0;3094;0;0;0;0;4;0;3887;0;0;0;0;5;0;10446;2;0;0;0;0;0;6;0;7623;2;0;0;0;0;0;7;0;6879;0;0;0;0;8;0;6316;0;0;0;0;9;0;3234;0;0;0;0
19.01.18;19:15:00;1;586;8673;0;2;0;5058;0;0;0;0;3;0;3094;0;0;0;0;4;0;3887;0;0;0;0;5;0;10446;2;0;0;0;0;0;6;0;7623;2;0;0;0;0;0;7;0;6879;0;0;0;0;8;0;6316;0;0;0;0;9;0;3234;0;0;0;0
19.01.18;19:10:00;1;968;8625;0;2;0;5058;0;0;0;0;3;0;3094;0;0;0;0;4;0;3887;0;0;0;0;5;0;10446;2;0;0;0;0;0;6;0;7623;2;0;0;0;0;0;7;0;6879;0;0;0;0;8;0;6316;0;0;0;0;9;0;3234;0;0;0;0
19.01.18;19:05:00;1;734;8547;0;2;0;5058;0;0;0;0;3;0;3094;0;0;0;0;4;0;3887;0;0;0;0;5;0;10446;2;0;0;0;0;0;6;0;7623;2;0;0;0;0;0;7;0;6879;0;0;0;0;8;0;6316;0;0;0;0;9;0;3234;0;0;0;0
19.01.18;19:00:00;1;710;8486;0;2;0;5058;0;0;0;0;3;0;3094;0;0;0;0;4;0;3887;0;0;0;0;5;0;10446;2;0;0;0;0;0;6;0;7623;2;0;0;0;0;0;7;0;6879;0;0;0;0;8;0;6316;0;0;0;0;9;0;3234;0;0;0;0
19.01.18;18:55:00;1;1232;8426;0;2;0;5058;0;0;0;0;3;0;3094;0;0;0;0;4;0;3887;0;0;0;0;5;0;10446;2;0;0;0;0;0;6;0;7623;2;0;0;0;0;0;7;0;6879;0;0;0;0;8;0;6316;0;0;0;0;9;0;3234;0;0;0;0
19.01.18;18:50:00;1;1482;8310;0;2;0;5058;0;0;0;0;3;0;3094;0;0;0;0;4;0;3887;0;0;0;0;5;0;10446;2;0;0;0;0;0;6;0;7623;2;0;0;0;0;0;7;0;6879;0;0;0;0;8;0;6316;0;0;0;0;9;0;3234;0;0;0;0
19.01.18;18:45:00;1;1249;8195;0;2;0;5058;0;0;0;0;3;0;3094;0;0;0;0;4;0;3887;0;0;0;0;5;0;10446;2;0;0;0;0;0;6;0;7623;2;0;0;0;0;0;7;0;6879;0;0;0;0;8;0;6316;0;0;0;0;9;0;3234;0;0;0;0
19.01.18;18:40:00;1;1687;8091;0;2;0;5058;0;0;0;0;3;0;3094;0;0;0;0;4;0;3887;0;0;0;0;5;0;10446;2;0;0;0;0;0;6;0;7623;2;0;0;0;0;0;7;0;6879;0;0;0;0;8;0;6316;0;0;0;0;9;0;3234;0;0;0;0
19.01.18;18:35:00;1;1210;7957;0;2;0;5058;0;0;0;0;3;0;3094;0;0;0;0;4;0;3887;0;0;0;0;5;0;10446;2;0;0;0;0;0;6;0;7623;2;0;0;0;0;0;7;0;6879;0;0;0;0;8;0;6316;0;0;0;0;9;0;3234;0;0;0;0
19.01.18;18:30:00;1;1239;7857;0;2;0;5058;0;0;0;0;3;0;3094;0;0;0;0;4;0;3887;0;0;0;0;5;0;10446;2;0;0;0;0;0;6;0;7623;2;0;0;0;0;0;7;0;6879;0;0;0;0;8;0;6316;0;0;0;0;9;0;3234;0;0;0;0
19.01.18;18:25:00;1;1231;7755;0;2;0;5058;0;0;0;0;3;0;3094;0;0;0;0;4;0;3887;0;0;0;0;5;0;10446;2;0;0;0;0;0;6;0;7623;2;0;0;0;0;0;7;0;6879;0;0;0;0;8;0;6316;0;0;0;0;9;0;3234;0;0;0;0
19.01.18;18:20:00;1;1323;7642;0;2;0;5058;0;0;0;0;3;0;3094;0;0;0;0;4;0;3887;0;0;0;0;5;0;10446;2;0;0;0;0;0;6;0;7623;2;0;0;0;0;0;7;0;6879;0;0;0;0;8;0;6316;0;0;0;0;9;0;3234;0;0;0;0
19.01.18;18:15:00;1;1252;7528;0;2;0;5058;0;0;0;0;3;0;3094;0;0;0;0;4;0;3887;0;0;0;0;5;0;10446;2;0;0;0;0;0;6;0;7623;2;0;0;0;0;0;7;0;6879;0;0;0;0;8;0;6316;0;0;0;0;9;0;3234;0;0;0;0
19.01.18;18:10:00;1;1374;7423;0;2;0;5058;0;0;0;0;3;0;3094;0;0;0;0;4;0;3887;0;0;0;0;5;0;10446;2;0;0;0;0;0;6;0;7623;2;0;0;0;0;0;7;0;6879;0;0;0;0;8;0;6316;0;0;0;0;9;0;3234;0;0;0;0
19.01.18;18:05:00;1;1433;7306;0;2;0;5058;0;0;0;0;3;0;3094;0;0;0;0;4;0;3887;0;0;0;0;5;0;10446;2;0;0;0;0;0;6;0;7623;2;0;0;0;0;0;7;0;6879;0;0;0;0;8;0;6316;0;0;0;0;9;0;3234;0;0;0;0
19.01.18;18:00:00;1;2400;7167;0;2;0;5058;0;0;0;0;3;0;3094;0;0;0;0;4;0;3887;0;0;0;0;5;0;10446;2;0;0;0;0;0;6;0;7623;2;0;0;0;0;0;7;0;6879;0;0;0;0;8;0;6316;0;0;0;0;9;0;3234;0;0;0;0
19.01.18;17:55:00;1;1759;6975;0;2;0;5058;0;0;0;0;3;0;3094;0;0;0;0;4;0;3887;0;0;0;0;5;0;10446;2;0;0;0;0;0;6;0;7623;2;0;0;0;0;0;7;0;6879;0;0;0;0;8;0;6316;0;0;0;0;9;0;3234;0;0;0;0
19.01.18;17:50:00;1;1006;6830;0;2;0;5058;0;0;0;0;3;0;3094;0;0;0;0;4;0;3887;0;0;0;0;5;0;10446;2;0;0;0;0;0;6;0;7623;2;0;0;0;0;0;7;0;6879;0;0;0;0;8;0;6316;0;0;0;0;9;0;3234;0;0;0;0
19.01.18;17:45:00;1;1630;6750;0;2;0;5058;0;0;0;0;3;0;3094;0;0;0;0;4;0;3887;0;0;0;0;5;0;10446;2;0;0;0;0;0;6;0;7623;2;0;0;0;0;0;7;0;6879;0;0;0;0;8;0;6316;0;0;0;0;9;0;3234;0;0;0;0
19.01.18;17:40:00;1;2570;6601;0;2;0;5058;0;0;0;0;3;0;3094;0;0;0;0;4;0;3887;0;0;0;0;5;0;10446;2;0;0;0;0;0;6;0;7623;2;0;0;0;0;0;7;0;6879;0;0;0;0;8;0;6316;0;0;0;0;9;0;3234;0;0;0;0
19.01.18;17:35:00;1;2517;6390;0;2;0;5058;0;0;0;0;3;0;3094;0;0;0;0;4;0;3887;0;0;0;0;5;0;10446;2;0;0;0;0;0;6;0;7623;2;0;0;0;0;0;7;0;6879;0;0;0;0;8;0;6316;0;0;0;0;9;0;3234;0;0;0;0
19.01.18;17:30:00;1;2860;6178;0;2;0;5058;0;0;0;0;3;0;3094;0;0;0;0;4;0;3887;0;0;0;0;5;0;10446;2;0;0;0;0;0;6;0;7623;2;0;0;0;0;0;7;0;6879;0;0;0;0;8;0;6316;0;0;0;0;9;0;3234;0;0;0;0
19.01.18;17:25:00;1;2517;5936;0;2;0;5058;0;0;0;0;3;0;3094;0;0;0;0;4;0;3887;0;0;0;0;5;0;10446;2;0;0;0;0;0;6;0;7623;2;0;0;0;0;0;7;0;6879;0;0;0;0;8;0;6316;0;0;0;0;9;0;3234;0;0;0;0
19.01.18;17:20:00;1;671;5738;0;2;0;5058;0;0;0;0;3;0;3094;0;0;0;0;4;0;3887;0;0;0;0;5;0;10446;2;0;0;0;0;0;6;0;7623;2;0;0;0;0;0;7;0;6879;0;0;0;0;8;0;6316;0;0;0;0;9;0;3234;0;0;0;0
19.01.18;17:15:00;1;654;5677;0;2;0;5058;0;0;0;0;3;0;3094;0;0;0;0;4;0;3887;0;0;0;0;5;0;10446;2;0;0;0;0;0;6;0;7623;2;0;0;0;0;0;7;0;6879;0;0;0;0;8;0;6316;0;0;0;0;9;0;3234;0;0;0;0
19.01.18;17:10:00;1;1088;5621;0;2;0;5058;0;0;73;3;3;0;3094;0;0;197;10;4;0;3887;0;0;0;0;5;0;10446;2;0;0;0;0;0;6;0;7623;2;0;0;0;0;0;7;0;6879;0;0;0;0;8;0;6316;0;0;0;0;9;0;3234;0;0;0;0
19.01.18;17:05:00;1;569;5536;0;2;0;5058;6;0;298;11;3;0;3094;6;0;338;14;4;0;3887;0;0;60;8;5;0;10446;2;0;0;0;0;0;6;0;7623;2;0;0;0;0;0;7;0;6879;0;0;0;0;8;0;6316;0;0;0;0;9;0;3234;0;0;0;0
19.01.18;17:00:00;1;679;5486;0;2;0;5058;6;0;354;12;3;0;3094;6;1;418;14;4;0;3887;1;0;128;10;5;0;10446;26;0;0;352;389;21;6;0;7623;2;8;2;288;260;20;7;0;6879;0;0;235;11;8;0;6316;0;0;234;11;9;0;3234;0;0;243;8
19.01.18;16:55:00;1;962;5428;0;2;0;5058;6;0;366;12;3;0;3094;6;4;416;15;4;0;3887;1;0;147;10;5;0;10446;23;0;0;373;418;21;6;0;7623;23;5;2;245;421;20;7;0;6879;6;0;316;15;8;0;6316;6;0;316;14;9;0;3234;6;0;319;10
19.01.18;16:50:00;1;767;5341;0;2;0;5058;6;0;374;12;3;0;3094;6;1;451;15;4;0;3887;1;0;158;10;5;0;10446;23;0;0;392;409;22;6;0;7623;23;4;4;414;296;21;7;0;6879;6;0;340;15;8;0;6316;6;0;339;14;9;0;3234;6;0;342;10
19.01.18;16:45:00;1;624;5281;0;2;0;5058;6;0;391;13;3;0;3094;6;0;493;15;4;0;3887;1;0;191;11;5;0;10446;26;0;0;417;590;22;6;0;7623;23;5;3;263;558;21;7;0;6879;6;0;389;15;8;0;6316;6;0;387;14;9;0;3234;6;0;400;11
19.01.18;16:40:00;1;855;5229;0;2;2;5058;6;8;406;13;3;2;3094;4;9;487;15;4;0;3887;3;0;219;11;5;63;10446;1;11;16;395;633;23;6;34;7623;1;23;32;510;488;22;7;0;6879;6;1;444;15;8;0;6316;6;1;451;14;9;1;3234;6;1;487;11
19.01.18;16:35:00;1;603;5148;0;2;6;5058;6;11;412;14;3;2;3094;6;8;518;15;4;0;3887;3;0;226;11;5;98;10441;4;29;29;387;621;23;6;61;7623;4;16;21;464;438;23;7;0;6879;6;0;496;16;8;0;6316;6;5;471;15;9;2;3234;4;3;512;11
19.01.18;16:30:00;1;554;5096;0;2;30;5057;6;51;385;14;3;2;3094;6;8;527;16;4;1;3887;3;1;216;12;5;120;10433;4;44;35;387;621;23;6;76;7623;4;38;44;464;437;23;7;8;6879;4;16;457;16;8;2;6316;6;7;483;15;9;1;3233;3;13;479;11
19.01.18;16:25:00;1;554;5050;0;2;112;5055;4;147;384;15;3;38;3094;6;62;519;16;4;45;3887;3;46;198;12;5;209;10422;4;94;85;387;621;23;6;136;7623;4;64;71;464;438;23;7;69;6878;4;108;438;16;8;55;6316;4;97;438;15;9;7;3233;6;13;550;11
19.01.18;16:20:00;1;790;5004;0;2;210;5046;4;249;388;16;3;97;3091;4;135;486;17;4;78;3884;3;81;203;12;5;252;10405;4;113;105;387;621;23;6;171;7623;4;74;83;472;455;23;7;126;6873;4;155;458;16;8;102;6311;4;140;436;15;9;8;3233;6;11;564;12
19.01.18;16:15:00;1;554;4926;0;2;820;5029;4;879;400;17;3;430;3083;4;479;447;17;4;279;3877;5;291;199;12;5;757;10383;4;363;332;418;692;23;6;600;7623;4;300;314;599;581;23;7;375;6862;4;434;468;16;8;218;6303;4;249;402;16;9;62;3232;6;87;526;12
19.01.18;16:10:00;1;555;4880;0;2;1236;4964;4;1313;403;17;3;662;3049;4;721;451;17;4;387;3855;5;404;201;12;5;1286;10316;4;651;549;438;709;23;6;980;7623;4;512;520;623;593;23;7;1159;6833;4;1234;465;16;8;397;6285;4;435;411;16;9;100;3227;4;137;533;12
19.01.18;16:05:00;1;588;4833;0;2;1357;4862;4;1435;404;17;3;734;2994;4;795;458;17;4;378;3822;5;394;200;12;5;1442;10209;4;743;624;442;713;23;6;1101;7623;4;550;552;619;592;23;7;1551;6738;4;1634;490;16;8;629;6253;4;671;422;16;9;99;3219;4;132;536;12
19.01.18;16:00:00;1;1311;4784;0;2;1497;4749;4;1578;406;16;3;804;2933;4;868;461;17;4;385;3791;5;401;200;12;5;1618;10087;4;837;718;433;724;23;6;1258;7587;4;640;643;619;592;22;7;1523;6610;4;1604;521;16;8;780;6201;4;824;402;16;9;103;3211;4;136;533;12
19.01.18;15:55:00;1;599;4704;0;2;1631;4624;4;1716;406;15;3;882;2866;4;949;458;16;4;413;3759;5;430;199;12;5;1886;9950;4;980;818;446;733;23;6;1444;7481;4;755;753;622;595;22;7;1472;6483;4;1558;534;16;8;1113;6136;4;1173;424;16;9;131;3202;4;165;554;13
19.01.18;15:50:00;1;650;4651;0;2;1140;4488;4;1210;405;15;3;617;2793;4;676;480;16;4;412;3724;5;429;237;12;5;1616;9800;4;848;699;435;695;23;6;1189;7365;4;607;615;618;588;22;7;960;6359;4;1021;530;16;8;896;6043;4;958;476;16;9;193;3191;4;232;574;13
19.01.18;15:45:00;1;554;4600;0;2;827;4399;4;887;407;14;3;471;2744;4;523;504;16;4;431;3691;5;449;248;12;5;1266;9670;4;650;548;434;689;23;6;906;7270;4;456;468;586;582;22;7;873;6280;4;931;494;16;8;925;5970;4;980;485;16;9;256;3176;4;296;551;13
19.01.18;15:40:00;1;1271;4553;0;2;376;4330;4;420;402;14;3;229;2705;4;277;514;16;4;294;3655;5;306;242;12;5;670;9580;4;338;286;411;651;23;6;508;7198;4;253;269;595;566;22;7;417;6206;4;474;477;16;8;420;5893;4;465;475;16;9;221;3154;4;258;522;13
19.01.18;15:35:00;1;656;4478;0;2;345;4298;4;390;406;14;3;212;2686;4;254;517;16;4;268;3631;5;279;239;12;5;625;9524;4;308;260;407;635;23;6;475;7156;4;233;248;588;565;23;7;387;6171;4;442;485;16;8;391;5858;4;436;484;16;9;210;3136;4;244;526;13
19.01.18;15:30:00;1;983;4423;0;2;335;4269;4;382;396;15;3;205;2668;4;248;518;16;4;260;3608;5;271;236;12;5;649;9473;4;328;278;412;657;23;6;487;7117;4;256;262;584;566;23;7;348;6139;4;388;479;16;8;349;5826;4;397;462;16;9;183;3118;4;220;524;13
19.01.18;15:25:00;1;1348;4329;0;2;429;4241;4;479;403;15;3;263;2651;4;309;517;17;4;331;3587;5;345;242;13;5;801;9417;4;405;340;424;670;23;6;612;7076;4;298;310;591;570;23;7;487;6110;4;525;471;16;8;557;5796;4;604;471;16;9;255;3103;4;297;526;13
19.01.18;15:20:00;1;1299;4216;0;2;476;4206;4;526;404;15;3;290;2629;4;340;516;17;4;389;3559;5;405;237;13;5;895;9349;4;443;378;419;671;23;6;666;7025;4;343;358;593;576;23;7;455;6070;4;509;480;16;8;463;5752;4;509;473;16;9;242;3082;4;281;529;13
19.01.18;15:15:00;1;556;4115;0;2;929;4167;4;992;402;15;3;529;2605;4;583;502;16;4;517;3527;5;538;248;13;5;1459;9273;4;759;641;429;696;23;6;1059;6968;4;546;554;574;577;23;7;1148;6032;4;1219;475;16;8;1059;5714;4;1128;481;16;9;538;3062;4;594;538;13
19.01.18;15:10:00;1;583;4068;0;2;420;4092;4;468;404;15;3;244;2562;4;287;518;16;4;297;3485;5;309;239;13;5;697;9153;4;350;303;415;652;23;6;526;6879;4;237;253;567;572;23;7;453;5939;4;502;486;17;8;495;5628;4;537;466;16;9;313;3019;4;356;520;13
19.01.18;15:05:00;1;933;4020;0;2;300;4057;4;342;393;15;3;182;2542;4;225;516;17;4;226;3460;5;235;232;13;5;536;9095;4;271;232;406;622;23;6;411;6835;4;207;221;585;561;23;7;306;5901;4;347;481;17;8;297;5586;4;346;476;16;9;152;2992;4;186;524;13
19.01.18;15:00:00;1;660;3935;0;2;308;4031;4;352;396;15;3;187;2527;4;228;517;17;4;237;3441;5;247;233;13;5;581;9050;4;295;248;403;628;24;6;438;6801;4;226;235;585;557;23;7;319;5875;4;361;464;17;8;305;5561;4;347;462;16;9;159;2979;4;190;517;14
19.01.18;14:55:00;1;616;3880;0;2;446;4006;4;496;398;16;3;274;2511;4;320;505;17;4;349;3421;5;364;240;13;5;811;9001;4;411;344;415;657;24;6;602;6764;4;278;286;581;573;23;7;516;5849;4;572;472;17;8;508;5535;4;550;477;17;9;262;2966;4;301;522;14
19.01.18;14:50:00;1;550;3829;0;2;849;3968;4;914;413;16;3;534;2488;4;592;510;17;4;600;3391;5;625;245;13;5;1453;8930;4;756;632;423;699;24;6;1090;6711;4;580;569;604;580;23;7;1031;5805;4;1092;495;17;8;982;5493;4;1043;490;17;9;471;2944;4;522;534;14
19.01.18;14:45:00;1;252;3784;0;2;1140;3900;4;1216;415;16;3;740;2445;4;807;513;17;4;733;3342;5;763;246;13;5;1920;8801;4;1003;854;424;695;24;6;1073;6614;4;558;554;601;580;23;7;978;5722;4;1034;491;17;8;957;5413;4;1029;480;17;9;504;2905;4;556;535;14
19.01.18;14:40:00;1;496;3756;0;2;734;3808;4;794;407;16;3;459;2385;4;517;517;17;4;612;3282;5;638;244;13;5;1379;8671;4;711;593;425;705;24;6;1039;6515;4;531;524;603;578;23;7;793;5640;4;851;478;17;8;791;5334;4;846;472;17;9;421;2864;4;471;530;14
19.01.18;14:35:00;1;186;3710;0;2;748;3747;4;809;405;17;3;469;2347;4;527;512;17;4;632;3231;5;658;243;13;5;1423;8557;4;739;617;425;696;23;6;1090;6428;4;570;573;597;574;23;7;757;5574;4;807;469;17;8;749;5268;4;801;467;17;9;403;2829;4;447;524;14
19.01.18;14:30:00;1;188;3695;0;2;2984;3685;4;3142;422;18;3;1762;2308;4;1868;505;17;4;1196;3179;5;1246;246;13;5;4218;8436;4;2279;1892;435;706;23;6;3104;6336;4;1622;1579;617;595;22;7;3129;5511;4;3282;514;16;8;3004;5205;4;3161;484;16;9;1396;2795;4;1488;520;15
19.01.18;14:25:00;1;188;3679;0;2;2970;3448;4;3122;429;15;3;1546;2168;4;1640;472;16;4;1043;3083;5;1086;248;12;5;3037;8057;4;1644;1349;447;728;23;6;3558;6047;4;1874;1788;620;610;22;7;3733;5266;4;3917;528;16;8;3029;4967;4;3182;489;16;9;2031;2684;4;2146;501;14
19.01.18;14:20:00;1;455;3663;0;2;1027;3185;4;1101;405;13;3;668;2039;4;731;513;16;4;609;2998;5;633;240;12;5;2028;7670;4;1075;893;428;707;23;6;1005;5757;4;510;511;600;577;22;7;755;4966;4;805;482;16;8;778;4739;4;832;483;15;9;506;2513;4;559;542;13
19.01.18;14:15:00;1;204;3617;0;2;451;3082;4;498;409;13;3;281;1972;4;330;508;16;4;395;2941;5;412;239;12;5;962;7531;4;479;409;424;683;23;6;723;5647;4;372;384;596;577;22;7;600;4899;4;647;467;16;8;605;4672;4;656;483;15;9;323;2468;4;367;530;12
19.01.18;14:10:00;1;227;3599;0;2;627;3045;4;682;403;13;3;339;1949;4;386;517;15;4;423;2909;5;440;238;12;5;1097;7456;4;571;456;421;657;23;6;519;5589;4;260;271;500;490;22;7;779;4850;4;821;489;16;8;1044;4622;4;1111;497;15;9;578;2441;4;632;541;12
19.01.18;14:05:00;1;229;3580;0;2;259;2994;4;299;394;13;3;156;1921;4;200;504;15;4;195;2875;5;203;232;12;5;511;7381;4;258;218;413;622;23;6;321;5538;4;180;174;464;437;22;7;276;4787;4;319;473;16;8;275;4539;4;319;481;15;9;143;2395;4;174;536;12
19.01.18;14:00:00;1;928;3561;0;2;214;2973;4;253;385;13;3;125;1908;4;166;510;16;4;158;2859;5;165;229;12;5;432;7339;4;208;184;403;618;23;6;297;5512;4;136;152;495;503;22;7;226;4764;4;255;455;16;8;219;4516;4;253;448;16;9;112;2383;4;146;513;12